�N����,����,����,����,����,�C��,���x,�~����,�S�V����,�ő�u�ԕ���,,,,,
,,,,,,,,,����,����,����,�N��,,
yyyy/mm/dd,hh:mm:ss,(16),16����,m/s,��,%,mm,KW/�u,(16),16����,m/s,Time,,
2017/9/1,1:00:00,14,�k��,1.4,14.5,98.5,0,0,14,�k��,5,47,,
2017/9/1,2:00:00,14,�k��,2.3,15,97.3,0,0,14,�k��,4.8,43,,
2017/9/1,3:00:00,14,�k��,2.4,15.1,96.4,0,0,14,�k��,4.9,51,,
2017/9/1,4:00:00,14,�k��,2.3,15.1,96.1,0,0,14,�k��,4.8,3,,
2017/9/1,5:00:00,14,�k��,3.4,14.5,93.6,0,0,14,�k��,5.9,48,,
2017/9/1,6:00:00,14,�k��,2.6,14.3,93.1,0,0.03,14,�k��,6.5,4,,
2017/9/1,7:00:00,16,�k,1.6,16,85.6,0,0.16,14,�k��,5,13,,
2017/9/1,8:00:00,16,�k,2.4,17.9,78.2,0,0.26,15,�k�k��,4.6,51,,
2017/9/1,9:00:00,16,�k,1.1,18.7,74.4,0,0.28,15,�k�k��,4.2,4,,
2017/9/1,10:00:00,2,�k��,1.4,19.8,71.8,0,0.42,3,���k��,3.6,57,,
2017/9/1,11:00:00,5,���쓌,2.1,19.9,72.9,0,0.53,5,���쓌,4.7,40,,
2017/9/1,12:00:00,5,���쓌,2.9,19.5,72.6,0,0.52,5,���쓌,4.7,37,,
2017/9/1,13:00:00,5,���쓌,3.5,21,66.1,0,0.76,5,���쓌,6.4,58,,
2017/9/1,14:00:00,6,�쓌,3.1,20.2,73.4,0,0.8,5,���쓌,5.8,44,,
2017/9/1,15:00:00,6,�쓌,3.2,18.8,80.9,0,0.66,5,���쓌,5.5,22,,
2017/9/1,16:00:00,7,��쓌,2.2,17,90.3,0,0.36,5,���쓌,5.5,7,,
2017/9/1,17:00:00,6,�쓌,1.8,17,87.9,0,0.18,8,��,2.9,24,,
2017/9/1,18:00:00,16,�É�,0,14.4,95.9,0,0.03,4,��,2.3,10,,
2017/9/1,19:00:00,16,�É�,0,14.1,99.2,0,0,16,�É�,0,0,,
2017/9/1,20:00:00,16,�É�,0,14.2,99.3,0,0,16,�É�,0,0,,
2017/9/1,21:00:00,16,�É�,0,13.5,99.3,0,0,16,�É�,0,0,,
2017/9/1,22:00:00,16,�É�,0,14.4,99.5,0,0,13,���k��,2.2,39,,
2017/9/1,23:00:00,16,�É�,0,14.6,99,0,0,12,��,2,33,,
2017/9/1,0:00:00,16,�É�,0,14.5,98.9,0,0,14,�k��,1.7,39,,
2017/9/2,1:00:00,16,�É�,0,14.7,99,0,0,15,�k�k��,1.4,27,,
2017/9/2,2:00:00,16,�É�,0,14.3,97.5,0,0,2,�k��,2.2,20,,
2017/9/2,3:00:00,16,�É�,0,14.5,96.2,0,0,14,�k��,1.1,41,,
2017/9/2,4:00:00,16,�É�,0,13.9,95.5,0,0,14,�k��,1.9,26,,
2017/9/2,5:00:00,14,�k��,1.5,13.7,96.2,0,0,13,���k��,2.4,59,,
2017/9/2,6:00:00,13,���k��,1.1,14,95.4,0,0.03,14,�k��,3.3,34,,
2017/9/2,7:00:00,13,���k��,1.5,14.4,91.9,0,0.07,14,�k��,2.6,2,,
2017/9/2,8:00:00,16,�É�,0,15.1,93.6,0,0.08,4,��,2,1,,
2017/9/2,9:00:00,14,�k��,1.6,15.6,89.7,0,0.13,15,�k�k��,2.7,58,,
2017/9/2,10:00:00,1,�k�k��,1.9,18.3,77,0,0.34,1,�k�k��,3.8,52,,
2017/9/2,11:00:00,2,�k��,2.6,19.3,68.4,0,0.48,1,�k�k��,4.9,52,,
2017/9/2,12:00:00,2,�k��,2.5,19.6,71.4,0,0.51,2,�k��,4,57,,
2017/9/2,13:00:00,3,���k��,2.7,17.8,75,0,0.33,5,���쓌,4.9,39,,
2017/9/2,14:00:00,4,��,2.6,17.7,81.3,0,0.24,4,��,3.8,51,,
2017/9/2,15:00:00,4,��,1.4,17.1,85.2,0,0.14,4,��,4.1,22,,
2017/9/2,16:00:00,3,���k��,1.6,17.2,85.8,0,0.12,4,��,3.5,7,,
2017/9/2,17:00:00,2,�k��,1.7,16.7,85.9,0,0.06,2,�k��,2.6,57,,
2017/9/2,18:00:00,2,�k��,1.3,16.1,89.1,0,0.02,2,�k��,3.1,11,,
2017/9/2,19:00:00,16,�É�,0,15.9,89.6,0,0,2,�k��,2.6,10,,
2017/9/2,20:00:00,16,�É�,0,15.2,95,0,0,2,�k��,1.6,32,,
2017/9/2,21:00:00,16,�É�,0,15.2,96.3,0,0,12,��,1.4,31,,
2017/9/2,22:00:00,16,�k,0.7,15.2,94.8,0,0,1,�k�k��,2.1,57,,
2017/9/2,23:00:00,13,���k��,2.7,15.2,88.3,0,0,14,�k��,4.6,55,,
2017/9/2,0:00:00,16,�k,1.2,14.9,85.5,0,0,13,���k��,6.5,35,,
2017/9/3,1:00:00,14,�k��,2.8,14.9,83.4,0,0,14,�k��,5.8,56,,
2017/9/3,2:00:00,14,�k��,2.7,14.8,81.8,0,0,13,���k��,6,37,,
2017/9/3,3:00:00,14,�k��,2.8,14.6,81.3,0,0,13,���k��,5.1,30,,
2017/9/3,4:00:00,14,�k��,2.5,14.7,79,0,0,14,�k��,6.1,4,,
2017/9/3,5:00:00,14,�k��,2.3,14.8,75.1,0,0,13,���k��,5.9,16,,
2017/9/3,6:00:00,14,�k��,2.5,14.6,74.6,0,0.03,15,�k�k��,5,59,,
2017/9/3,7:00:00,14,�k��,2.6,15.9,74.4,0,0.22,14,�k��,6.1,3,,
2017/9/3,8:00:00,15,�k�k��,3.6,18.3,67.1,0,0.43,15,�k�k��,7.4,42,,
2017/9/3,9:00:00,15,�k�k��,3.2,20.1,65.2,0,0.69,15,�k�k��,9,26,,
2017/9/3,10:00:00,15,�k�k��,4.7,20.1,56.2,0,0.8,14,�k��,8.9,50,,
2017/9/3,11:00:00,16,�k,3.3,21.9,54.4,0,0.89,1,�k�k��,8.6,36,,
2017/9/3,12:00:00,16,�k,3.6,23.1,54.3,0,0.91,2,�k��,7.8,43,,
2017/9/3,13:00:00,1,�k�k��,4.1,23.2,55,0,0.88,1,�k�k��,7.7,54,,
2017/9/3,14:00:00,2,�k��,3,22.7,56,0,0.71,1,�k�k��,7.9,12,,
2017/9/3,15:00:00,2,�k��,2.6,21,59.6,0,0.24,2,�k��,5.6,0,,
2017/9/3,16:00:00,8,��,2.5,17.7,75.5,0,0.21,5,���쓌,4.7,1,,
2017/9/3,17:00:00,10,�쐼,0.5,16.9,81.7,0,0.1,8,��,3.7,7,,
2017/9/3,18:00:00,16,�É�,0,15.2,90.1,0,0.03,9,��쐼,0.7,2,,
2017/9/3,19:00:00,16,�É�,0.2,13.9,96.7,0,0,12,��,1.7,43,,
2017/9/3,20:00:00,16,�É�,0,12.9,97.3,0,0,16,�É�,0,0,,
2017/9/3,21:00:00,16,�É�,0,12.6,98.7,0,0,12,��,2.3,31,,
2017/9/3,22:00:00,13,���k��,1.7,12.9,92.7,0,0,14,�k��,3.1,47,,
2017/9/3,23:00:00,13,���k��,2.2,12.7,91.9,0,0,13,���k��,2.9,52,,
2017/9/3,0:00:00,13,���k��,0.3,11.9,95,0,0,14,�k��,1.9,58,,
2017/9/4,1:00:00,16,�É�,0,11.7,95.9,0,0,11,���쐼,2.2,10,,
2017/9/4,2:00:00,16,�É�,0,8.7,99,0,0,16,�É�,0,0,,
2017/9/4,3:00:00,13,���k��,2,9.3,98.4,0,0,13,���k��,2.9,48,,
2017/9/4,4:00:00,13,���k��,1.9,9.1,99.4,0,0,13,���k��,2.5,43,,
2017/9/4,5:00:00,14,�k��,1.6,9.4,95.6,0,0,16,�k,4.7,12,,
2017/9/4,6:00:00,13,���k��,1.7,10.4,95.2,0,0.09,13,���k��,3.4,54,,
2017/9/4,7:00:00,13,���k��,1.1,13.8,86,0,0.29,13,���k��,4.1,31,,
2017/9/4,8:00:00,11,���쐼,2.1,17.6,73,0,0.49,10,�쐼,3.2,58,,
2017/9/4,9:00:00,7,��쓌,2.6,18.6,63.8,0,0.66,7,��쓌,4.4,55,,
2017/9/4,10:00:00,8,��,2.5,19.3,62.8,0,0.8,6,�쓌,5.5,37,,
2017/9/4,11:00:00,8,��,4,19.5,55,0,0.89,9,��쐼,6,52,,
2017/9/4,12:00:00,8,��,4.1,19.7,60.4,0,0.92,8,��,7.2,59,,
2017/9/4,13:00:00,8,��,4.2,20.2,57.7,0,0.87,8,��,8.3,25,,
2017/9/4,14:00:00,9,��쐼,3.7,20.4,56.1,0,0.77,8,��,8.6,13,,
2017/9/4,15:00:00,8,��,3.6,18.6,64.9,0,0.57,9,��쐼,7.1,9,,
2017/9/4,16:00:00,8,��,2,20.1,67.1,0,0.34,8,��,5.7,8,,
2017/9/4,17:00:00,9,��쐼,0.3,20.2,68.4,0,0.25,8,��,3.8,9,,
2017/9/4,18:00:00,16,�É�,0,16.6,89.4,0,0.05,10,�쐼,2.4,4,,
2017/9/4,19:00:00,12,��,1.8,13.4,94,0,0,12,��,2.7,59,,
2017/9/4,20:00:00,12,��,2.3,12.5,97.6,0,0,12,��,3.6,6,,
2017/9/4,21:00:00,16,�É�,0,11.6,97.9,0,0,12,��,3.2,1,,
2017/9/4,22:00:00,13,���k��,2.5,11.5,98.8,0,0,12,��,3.5,47,,
2017/9/4,23:00:00,13,���k��,1.9,11.2,98.7,0,0,13,���k��,3.4,2,,
2017/9/4,0:00:00,12,��,2.5,10.8,96.3,0,0,12,��,4.2,46,,
2017/9/5,1:00:00,16,�É�,0.1,9.7,98.6,0,0,13,���k��,2.3,17,,
2017/9/5,2:00:00,12,��,2.5,10.2,99.5,0,0,12,��,3.2,0,,
2017/9/5,3:00:00,16,�É�,0,10,96.3,0,0,12,��,3.6,8,,
2017/9/5,4:00:00,13,���k��,2.2,9.8,95.5,0,0,13,���k��,4.7,38,,
2017/9/5,5:00:00,12,��,1,9.9,96.2,0,0,13,���k��,4.7,29,,
2017/9/5,6:00:00,12,��,1.7,11.4,97.1,0,0.09,11,���쐼,2.5,54,,
2017/9/5,7:00:00,13,���k��,2.1,16.4,84.6,0,0.28,12,��,3.3,52,,
2017/9/5,8:00:00,14,�k��,1.4,20.6,70.8,0,0.48,14,�k��,2.5,53,,
2017/9/5,9:00:00,6,�쓌,1.6,21.7,73.9,0,0.65,5,���쓌,3.2,25,,
2017/9/5,10:00:00,6,�쓌,2.4,23,62,0,0.79,5,���쓌,3.6,46,,
2017/9/5,11:00:00,6,�쓌,1.5,23.3,58.4,0,0.89,6,�쓌,4.2,40,,
2017/9/5,12:00:00,7,��쓌,0.7,21.4,60.7,0,0.91,7,��쓌,5.3,10,,
2017/9/5,13:00:00,16,�É�,0,22.6,60.4,0,0.87,8,��,5,0,,
2017/9/5,14:00:00,16,�É�,0,22.8,62,0,0.77,16,�É�,0,0,,
2017/9/5,15:00:00,6,�쓌,0.6,22.5,60.5,0,0.62,8,��,3.3,46,,
2017/9/5,16:00:00,6,�쓌,1.2,22.3,65.4,0,0.45,6,�쓌,2.8,8,,
2017/9/5,17:00:00,16,�É�,0,20.3,75.8,0,0.24,6,�쓌,2.5,3,,
2017/9/5,18:00:00,16,�É�,0,16.4,92.5,0,0.05,16,�É�,0,0,,
2017/9/5,19:00:00,16,�É�,0,13.2,98.2,0,0,1,�k�k��,2,2,,
2017/9/5,20:00:00,13,���k��,3.1,14.5,98.1,0,0,13,���k��,3.9,57,,
2017/9/5,21:00:00,15,�k�k��,0.3,12.5,96.8,0,0,13,���k��,3.7,14,,
2017/9/5,22:00:00,1,�k�k��,0.7,10.4,99.2,0,0,1,�k�k��,1.7,0,,
2017/9/5,23:00:00,13,���k��,1.9,10.7,100,0,0,13,���k��,2.5,30,,
2017/9/5,0:00:00,13,���k��,2.3,11.2,98.7,0,0,12,��,3.1,58,,
2017/9/6,1:00:00,13,���k��,1,11.7,97.7,0,0,13,���k��,3.5,3,,
2017/9/6,2:00:00,12,��,0.5,10.4,98.4,0,0,12,��,2.5,8,,
2017/9/6,3:00:00,16,�É�,0,11,99.4,0,0,12,��,1.8,0,,
2017/9/6,4:00:00,16,�É�,0,11.8,100,0,0,16,�É�,0,0,,
2017/9/6,5:00:00,16,�É�,0.1,11.5,100,0,0,14,�k��,2.2,39,,
2017/9/6,6:00:00,16,�É�,0,10.6,100,0,0.04,12,��,2.9,6,,
2017/9/6,7:00:00,16,�É�,0,13.4,100,0,0.14,11,���쐼,1.3,46,,
2017/9/6,8:00:00,2,�k��,1.3,14.6,100,0,0.25,2,�k��,2.6,47,,
2017/9/6,9:00:00,4,��,1,16.7,96.2,0,0.35,2,�k��,2.8,30,,
2017/9/6,10:00:00,4,��,2,18.4,92.6,0,0.45,5,���쓌,3.1,58,,
2017/9/6,11:00:00,4,��,3,20,90,0,0.44,4,��,4.5,59,,
2017/9/6,12:00:00,4,��,3.8,19,90.6,0,0.45,4,��,5.4,48,,
2017/9/6,13:00:00,3,���k��,3.6,20.1,89.1,0,0.4,4,��,5.5,38,,
2017/9/6,14:00:00,4,��,3.1,18.8,94.7,0,0.25,4,��,5.3,10,,
2017/9/6,15:00:00,3,���k��,2,19,97.6,0,0.18,4,��,4.3,41,,
2017/9/6,16:00:00,16,�É�,0.1,19,98,0,0.09,3,���k��,3,32,,
2017/9/6,17:00:00,4,��,2,18.6,98.4,0,0.06,4,��,2.9,55,,
2017/9/6,18:00:00,16,�É�,0,17.9,99.5,0,0.01,3,���k��,2.6,4,,
2017/9/6,19:00:00,16,�É�,0,17.7,99.8,0,0,16,�É�,0,0,,
2017/9/6,20:00:00,16,�É�,0,17.4,100,0,0,5,���쓌,1.7,14,,
2017/9/6,21:00:00,16,�É�,0,17.3,100,0,0,4,��,2.5,9,,
2017/9/6,22:00:00,16,�É�,0,17.4,100,0,0,16,�É�,0,0,,
2017/9/6,23:00:00,16,�É�,0,17.5,100,0,0,16,�É�,0,0,,
2017/9/6,0:00:00,16,�É�,0,17.3,100,0,0,14,�k��,1.3,21,,
2017/9/7,1:00:00,16,�É�,0,17.4,100,0,0,16,�É�,0,0,,
2017/9/7,2:00:00,16,�É�,0,17.2,100,0,0,16,�É�,0,0,,
2017/9/7,3:00:00,16,�É�,0,17.2,100,0,0,16,�É�,0,0,,
2017/9/7,4:00:00,16,�É�,0,16.7,100,0,0,16,�É�,0,0,,
2017/9/7,5:00:00,14,�k��,0.5,17,100,0,0,14,�k��,1.9,51,,
2017/9/7,6:00:00,16,�É�,0,17.4,100,0,0.02,12,��,0.9,19,,
2017/9/7,7:00:00,16,�É�,0,17.6,100,0,0.04,16,�É�,0,0,,
2017/9/7,8:00:00,16,�É�,0,17.8,100,0,0.09,16,�É�,0,0,,
2017/9/7,9:00:00,10,�쐼,0.5,19,92.2,0,0.27,11,���쐼,2,53,,
2017/9/7,10:00:00,8,��,1,22,80.8,0,0.52,8,��,2.7,39,,
2017/9/7,11:00:00,6,�쓌,2.8,20.5,85,0,0.71,5,���쓌,4.7,27,,
2017/9/7,12:00:00,5,���쓌,3.5,19.7,89,0,0.55,5,���쓌,5.5,19,,
2017/9/7,13:00:00,5,���쓌,2.5,20.1,88.5,0,0.54,5,���쓌,5.5,13,,
2017/9/7,14:00:00,6,�쓌,3.2,19.9,88.4,0,0.71,7,��쓌,4.8,54,,
2017/9/7,15:00:00,5,���쓌,2.1,19,95,0,0.48,5,���쓌,4.9,9,,
2017/9/7,16:00:00,4,��,2.1,18.8,96.8,0,0.19,6,�쓌,3.4,21,,
2017/9/7,17:00:00,16,�É�,0,18.6,97.1,0,0.06,5,���쓌,3.2,22,,
2017/9/7,18:00:00,16,�É�,0,18.3,97.6,0,0.01,4,��,2.2,6,,
2017/9/7,19:00:00,3,���k��,0.7,18.3,97.7,0,0,3,���k��,2,52,,
2017/9/7,20:00:00,3,���k��,2,18,98.8,0,0,3,���k��,2.7,53,,
2017/9/7,21:00:00,3,���k��,1.3,18,99.6,0,0,3,���k��,2.5,51,,
2017/9/7,22:00:00,3,���k��,1.8,18,99.8,0,0,3,���k��,3,47,,
2017/9/7,23:00:00,2,�k��,1,18.1,99.9,0,0,2,�k��,2.6,5,,
2017/9/7,0:00:00,16,�É�,0,18.1,100,0,0,2,�k��,2.7,23,,
2017/9/8,1:00:00,16,�É�,0,18.1,100,0,0,3,���k��,2.3,40,,
2017/9/8,2:00:00,16,�É�,0.2,17.8,100,0,0,3,���k��,4.5,40,,
2017/9/8,3:00:00,2,�k��,1.4,17.5,100,1,0,1,�k�k��,2.6,58,,
2017/9/8,4:00:00,13,���k��,2,17.5,100,0,0,13,���k��,3.3,58,,
2017/9/8,5:00:00,16,�É�,0.1,16.9,99.7,1,0,12,��,4,3,,
2017/9/8,6:00:00,14,�k��,1.3,17.4,97.5,0,0.01,14,�k��,3.1,45,,
2017/9/8,7:00:00,15,�k�k��,0.4,18.4,97.5,0,0.07,13,���k��,3.3,3,,
2017/9/8,8:00:00,16,�k,0.3,19.5,95.9,0,0.18,13,���k��,1.9,8,,
2017/9/8,9:00:00,1,�k�k��,0.7,20.1,90.9,0,0.26,13,���k��,4.2,17,,
2017/9/8,10:00:00,5,���쓌,3.4,19.6,91.8,0,0.3,4,��,4.5,58,,
2017/9/8,11:00:00,4,��,2.5,21.4,88.3,0,0.47,5,���쓌,4.8,40,,
2017/9/8,12:00:00,4,��,4.8,20.4,85.4,0,0.68,4,��,7.7,54,,
2017/9/8,13:00:00,4,��,5.6,18,90,0,0.38,4,��,8.8,26,,
2017/9/8,14:00:00,4,��,4.1,18,86.4,0,0.22,5,���쓌,8.5,11,,
2017/9/8,15:00:00,4,��,4.2,16.7,88.6,0,0.13,4,��,6.6,54,,
2017/9/8,16:00:00,4,��,4.1,16.4,87,0,0.07,4,��,6.6,47,,
2017/9/8,17:00:00,10,�쐼,1.1,16.6,87.8,0,0.04,5,���쓌,5.3,3,,
2017/9/8,18:00:00,6,�쓌,0.9,16.2,88.8,0,0.01,6,�쓌,2.1,46,,
2017/9/8,19:00:00,5,���쓌,1.6,16.2,90.6,0,0,5,���쓌,3.9,10,,
2017/9/8,20:00:00,16,�É�,0,16.1,92.5,0,0,6,�쓌,2.8,9,,
2017/9/8,21:00:00,3,���k��,1.6,15.9,94.4,0,0,4,��,2.5,44,,
2017/9/8,22:00:00,16,�É�,0,15.4,97.1,0,0,4,��,2.2,0,,
2017/9/8,23:00:00,16,�É�,0,15.4,97.8,0,0,16,�É�,0,0,,
2017/9/8,0:00:00,16,�É�,0,15.5,97.7,0,0,16,�É�,0,0,,
2017/9/9,1:00:00,16,�É�,0,15.3,98.1,0,0,12,��,2.4,7,,
2017/9/9,2:00:00,16,�É�,0,15.3,98.6,0,0,16,�É�,0,0,,
2017/9/9,3:00:00,11,���쐼,1.4,15.4,98.6,0,0,11,���쐼,2.4,40,,
2017/9/9,4:00:00,16,�É�,0,15.5,97.7,0,0,10,�쐼,1.9,15,,
2017/9/9,5:00:00,16,�É�,0,15.4,97.8,0,0,13,���k��,2,21,,
2017/9/9,6:00:00,16,�É�,0,16,95.8,0,0.03,12,��,1.5,26,,
2017/9/9,7:00:00,9,��쐼,0.7,16.9,89.1,0,0.12,8,��,1.6,56,,
2017/9/9,8:00:00,3,���k��,0.6,17.8,87.9,0,0.22,2,�k��,2.5,59,,
2017/9/9,9:00:00,7,��쓌,1.8,19.3,81,0,0.35,7,��쓌,3.4,48,,
2017/9/9,10:00:00,8,��,1.6,17.5,84.6,0,0.32,7,��쓌,4.2,14,,
2017/9/9,11:00:00,7,��쓌,2.6,18.9,83.5,0,0.38,7,��쓌,6.1,59,,
2017/9/9,12:00:00,6,�쓌,1.9,20.6,83.4,0,0.59,8,��,4.7,6,,
2017/9/9,13:00:00,5,���쓌,2.5,21.2,79.5,0,0.88,5,���쓌,5.4,52,,
2017/9/9,14:00:00,4,��,2.9,21.1,82,0,0.76,4,��,6.1,21,,
2017/9/9,15:00:00,3,���k��,3,19.8,87.2,0,0.49,3,���k��,5.4,13,,
2017/9/9,16:00:00,2,�k��,2.5,20.5,83.5,0,0.41,3,���k��,4.7,9,,
2017/9/9,17:00:00,5,���쓌,1.7,18.7,91.2,0,0.1,3,���k��,3.9,3,,
2017/9/9,18:00:00,8,��,0.7,17.6,96.3,0,0.02,5,���쓌,2.3,0,,
2017/9/9,19:00:00,16,�É�,0,13.5,98,0,0,4,��,1.4,6,,
2017/9/9,20:00:00,16,�É�,0,14.9,100,0,0,4,��,1.4,12,,
2017/9/9,21:00:00,16,�É�,0,12.9,100,0,0,15,�k�k��,1.2,29,,
2017/9/9,22:00:00,16,�É�,0.2,14.4,100,0,0,12,��,2.4,29,,
2017/9/9,23:00:00,16,�É�,0,14.7,100,0,0,13,���k��,2.7,19,,
2017/9/9,0:00:00,13,���k��,2.2,14.9,100,0,0,12,��,3.6,58,,
2017/9/10,1:00:00,15,�k�k��,0.4,15,100,0,0,12,��,3.4,10,,
2017/9/10,2:00:00,16,�É�,0,13.9,100,0,0,13,���k��,2.4,32,,
2017/9/10,3:00:00,16,�É�,0.1,13.5,96.7,0,0,13,���k��,4.5,34,,
2017/9/10,4:00:00,16,�É�,0,13.9,99.1,0,0,13,���k��,3,11,,
2017/9/10,5:00:00,12,��,1.5,14.1,99.8,0,0,12,��,2.5,49,,
2017/9/10,6:00:00,14,�k��,1.5,14.4,99.5,0.5,0.01,13,���k��,2.8,57,,
2017/9/10,7:00:00,16,�É�,0,14.4,97.4,2,0.03,11,���쐼,2.8,46,,
2017/9/10,8:00:00,14,�k��,1,14.5,97.4,1.5,0.06,1,�k�k��,3.1,27,,
2017/9/10,9:00:00,16,�É�,0.2,14.9,95,0,0.14,12,��,2.6,35,,
2017/9/10,10:00:00,16,�k,1.6,15.1,91.6,0,0.16,14,�k��,2.5,56,,
2017/9/10,11:00:00,14,�k��,1.2,17.3,82.8,0,0.33,13,���k��,2.8,38,,
2017/9/10,12:00:00,1,�k�k��,1.6,19.5,81.1,0,0.7,1,�k�k��,3.5,2,,
2017/9/10,13:00:00,2,�k��,1.3,20.5,75.9,0,0.82,5,���쓌,3.8,59,,
2017/9/10,14:00:00,6,�쓌,3.1,19.5,73.7,0,0.75,7,��쓌,4.5,32,,
2017/9/10,15:00:00,7,��쓌,3.1,19.5,74.5,0,0.63,8,��,5.3,42,,
2017/9/10,16:00:00,8,��,3,18.4,79.6,0,0.37,8,��,6.6,45,,
2017/9/10,17:00:00,16,�É�,0.1,17.9,83.6,0,0.15,8,��,5.5,3,,
2017/9/10,18:00:00,16,�É�,0,13.5,94.4,0,0.03,4,��,1.8,26,,
2017/9/10,19:00:00,16,�É�,0,12.8,99.6,0,0,12,��,2.1,36,,
2017/9/10,20:00:00,14,�k��,2,13.5,97.9,0,0,14,�k��,3.8,45,,
2017/9/10,21:00:00,12,��,2,11.6,97.5,0,0,13,���k��,3.5,33,,
2017/9/10,22:00:00,13,���k��,2,10.6,95.7,0,0,12,��,4.1,24,,
2017/9/10,23:00:00,13,���k��,2.1,10.5,92.5,0,0,12,��,4.4,30,,
2017/9/10,0:00:00,12,��,2.2,10.3,93.4,0,0,12,��,3.7,17,,
2017/9/11,1:00:00,13,���k��,2.5,10,90.6,0,0,14,�k��,4.3,50,,
2017/9/11,2:00:00,12,��,0.8,8.5,95.7,0,0,13,���k��,3.2,6,,
2017/9/11,3:00:00,12,��,1.5,8,95.7,0,0,12,��,3.3,20,,
2017/9/11,4:00:00,13,���k��,1.8,9.1,95.3,0,0,13,���k��,3.3,47,,
2017/9/11,5:00:00,13,���k��,0.3,8.5,95.6,0,0,14,�k��,2.8,6,,
2017/9/11,6:00:00,12,��,2,9.7,92.5,0,0.03,13,���k��,3.5,39,,
2017/9/11,7:00:00,13,���k��,1.8,12.1,83.8,0,0.14,13,���k��,4,41,,
2017/9/11,8:00:00,13,���k��,1.5,13.7,84,0,0.23,12,��,4,34,,
2017/9/11,9:00:00,3,���k��,0.5,16.9,69.4,0,0.42,13,���k��,2.8,11,,
2017/9/11,10:00:00,5,���쓌,1.3,18.6,66.6,0,0.68,5,���쓌,3.2,40,,
2017/9/11,11:00:00,6,�쓌,2.6,19,61.6,0,0.86,6,�쓌,4.6,57,,
2017/9/11,12:00:00,4,��,1.6,19.9,60.1,0,0.78,6,�쓌,4.7,1,,
2017/9/11,13:00:00,6,�쓌,2.6,18.5,71.4,0,0.6,6,�쓌,4.9,46,,
2017/9/11,14:00:00,7,��쓌,2.2,17.7,74,0,0.44,6,�쓌,4.6,4,,
2017/9/11,15:00:00,8,��,1.3,17.9,78.8,0,0.3,7,��쓌,3.7,44,,
2017/9/11,16:00:00,16,�É�,0,17.4,78.1,0,0.19,8,��,2.7,9,,
2017/9/11,17:00:00,16,�É�,0,16.6,86,0,0.07,16,�É�,0,0,,
2017/9/11,18:00:00,2,�k��,0.5,15,93.2,0,0.01,1,�k�k��,2.3,13,,
2017/9/11,19:00:00,12,��,0.8,14.2,97.2,0,0,11,���쐼,1.6,37,,
2017/9/11,20:00:00,16,�É�,0,14,97.8,0,0,11,���쐼,0.7,31,,
2017/9/11,21:00:00,15,�k�k��,0.6,14.6,93.9,0,0,14,�k��,3.4,28,,
2017/9/11,22:00:00,16,�É�,0,14,93.6,0,0,14,�k��,2.8,14,,
2017/9/11,23:00:00,13,���k��,1.5,13.8,94,0,0,13,���k��,2.2,49,,
2017/9/11,0:00:00,14,�k��,1.7,14.1,91.6,0,0,14,�k��,3,37,,
2017/9/12,1:00:00,16,�É�,0,13.9,94.8,0,0,14,�k��,2.3,7,,
2017/9/12,2:00:00,14,�k��,1.7,13.4,97.4,0.5,0,14,�k��,2.2,57,,
2017/9/12,3:00:00,14,�k��,1.4,13.8,97.8,0,0,14,�k��,2.3,40,,
2017/9/12,4:00:00,14,�k��,1.7,13.7,98.6,0.5,0,13,���k��,2.5,55,,
2017/9/12,5:00:00,14,�k��,2,13.7,97.3,0.5,0,13,���k��,4,19,,
2017/9/12,6:00:00,14,�k��,2.7,13.1,97.9,2.5,0.01,15,�k�k��,4.7,48,,
2017/9/12,7:00:00,15,�k�k��,0.9,13.6,97.9,1.5,0.02,14,�k��,5.6,17,,
2017/9/12,8:00:00,14,�k��,1.9,13.8,98.1,3,0.03,14,�k��,4.6,27,,
2017/9/12,9:00:00,14,�k��,2.8,13.8,98.6,5.5,0.03,14,�k��,5.2,19,,
2017/9/12,10:00:00,13,���k��,2.8,14.3,98.5,5,0.07,13,���k��,7.9,41,,
2017/9/12,11:00:00,13,���k��,1.8,14.7,97.2,0.5,0.11,12,��,4.7,17,,
2017/9/12,12:00:00,1,�k�k��,0.3,15.5,98.9,1,0.09,3,���k��,3,59,,
2017/9/12,13:00:00,8,��,2.1,15.1,97.5,5.5,0.07,5,���쓌,5.2,17,,
2017/9/12,14:00:00,16,�É�,0,14.9,97.9,4.5,0.07,9,��쐼,4.4,14,,
2017/9/12,15:00:00,16,�É�,0,15,99,5.5,0.04,16,�É�,0,0,,
2017/9/12,16:00:00,14,�k��,2.6,14.7,99.2,4,0.03,13,���k��,4.9,59,,
2017/9/12,17:00:00,14,�k��,2.1,14.9,99.3,2,0.02,14,�k��,5.7,6,,
2017/9/12,18:00:00,16,�É�,0.1,15.1,99.4,3,0,14,�k��,5.9,5,,
2017/9/12,19:00:00,2,�k��,2.6,15.4,99.3,2.5,0,3,���k��,7.4,14,,
2017/9/12,20:00:00,1,�k�k��,2.8,15.3,99.4,3,0,1,�k�k��,6.4,32,,
2017/9/12,21:00:00,14,�k��,4.8,14.7,99.1,1.5,0,14,�k��,7.4,53,,
2017/9/12,22:00:00,14,�k��,4.4,15,98.6,0,0,14,�k��,7.5,26,,
2017/9/12,23:00:00,14,�k��,4.4,15.2,97.6,0,0,14,�k��,7.9,5,,
2017/9/12,0:00:00,14,�k��,4.2,15.2,95.8,0,0,14,�k��,7.5,51,,
2017/9/13,1:00:00,14,�k��,3.6,15.2,94.6,0,0,14,�k��,7.7,39,,
2017/9/13,2:00:00,14,�k��,2.4,14.7,95.5,0,0,13,���k��,6,9,,
2017/9/13,3:00:00,14,�k��,1.9,13.7,97.5,0,0,13,���k��,3.6,13,,
2017/9/13,4:00:00,14,�k��,4.1,14.3,95.5,0,0,13,���k��,5.9,59,,
2017/9/13,5:00:00,13,���k��,3.5,13.4,95.4,0,0,13,���k��,5.7,28,,
2017/9/13,6:00:00,13,���k��,3.4,14.7,90.5,0,0.07,13,���k��,6.2,28,,
2017/9/13,7:00:00,12,��,3.1,17.3,87,0,0.25,13,���k��,5.2,0,,
2017/9/13,8:00:00,13,���k��,2.5,18.7,78.2,0,0.45,12,��,4.7,55,,
2017/9/13,9:00:00,14,�k��,1.8,20.6,71.8,0,0.63,10,�쐼,4.7,38,,
2017/9/13,10:00:00,13,���k��,1.7,22.2,68.3,0,0.77,13,���k��,4.9,7,,
2017/9/13,11:00:00,7,��쓌,3.5,21.4,73.4,0,0.84,6,�쓌,5.9,32,,
2017/9/13,12:00:00,8,��,3,22.3,66.8,0,0.89,8,��,5.5,5,,
2017/9/13,13:00:00,8,��,2.9,21.1,70.3,0,0.7,7,��쓌,5.8,46,,
2017/9/13,14:00:00,9,��쐼,2.3,19.9,73.2,0,0.36,8,��,5.1,37,,
2017/9/13,15:00:00,8,��,1.7,21.4,67.5,0,0.42,8,��,4.5,44,,
2017/9/13,16:00:00,6,�쓌,0.7,20,82,0,0.23,7,��쓌,3.9,1,,
2017/9/13,17:00:00,16,�É�,0,18.6,87.7,0,0.08,6,�쓌,2.5,10,,
2017/9/13,18:00:00,14,�k��,2.1,17.6,94.6,0.5,0.01,13,���k��,3.9,56,,
2017/9/13,19:00:00,16,�É�,0,15.4,97.5,0,0,14,�k��,2.5,24,,
2017/9/13,20:00:00,16,�É�,0,14,98.9,0,0,14,�k��,2.6,31,,
2017/9/13,21:00:00,14,�k��,0.3,15.2,99.1,0,0,14,�k��,3.1,32,,
2017/9/13,22:00:00,16,�É�,0,13.5,94.7,0,0,2,�k��,3.8,25,,
2017/9/13,23:00:00,16,�É�,0,10.9,99.2,0,0,12,��,3.2,13,,
2017/9/13,0:00:00,16,�É�,0,10.8,100,0,0,16,�É�,0.1,29,,
2017/9/14,1:00:00,13,���k��,2.1,10.4,100,0,0,12,��,3,52,,
2017/9/14,2:00:00,13,���k��,0.4,9.9,100,0,0,12,��,2.7,24,,
2017/9/14,3:00:00,12,��,1.7,10,100,0,0,12,��,2.6,23,,
2017/9/14,4:00:00,12,��,0.7,9.7,100,0,0,12,��,3,10,,
2017/9/14,5:00:00,14,�k��,0.4,10.2,100,0,0,11,���쐼,3.2,10,,
2017/9/14,6:00:00,16,�É�,0,11.1,100,0,0.03,13,���k��,3.6,26,,
2017/9/14,7:00:00,15,�k�k��,0.4,13.6,100,0,0.13,13,���k��,3,16,,
2017/9/14,8:00:00,3,���k��,2.8,15.7,100,0,0.29,4,��,4.7,48,,
2017/9/14,9:00:00,3,���k��,4.5,15.9,93.4,0,0.43,4,��,6.5,38,,
2017/9/14,10:00:00,3,���k��,5,17.6,88.7,0,0.54,4,��,7.2,51,,
2017/9/14,11:00:00,4,��,5.9,17.4,88,0,0.59,4,��,8.8,31,,
2017/9/14,12:00:00,3,���k��,5,17,88.2,0,0.49,4,��,8.6,18,,
2017/9/14,13:00:00,4,��,5.1,16.8,89,0,0.46,4,��,8.7,43,,
2017/9/14,14:00:00,4,��,4.1,15.4,90,0,0.25,4,��,7.8,11,,
2017/9/14,15:00:00,4,��,4.5,15.2,90.4,0,0.13,4,��,6.8,41,,
2017/9/14,16:00:00,4,��,4.2,15.4,92.3,0,0.1,4,��,6.5,51,,
2017/9/14,17:00:00,4,��,4.8,15,94.5,0,0.06,4,��,8.2,52,,
2017/9/14,18:00:00,3,���k��,3.3,14.8,96.1,0,0.01,3,���k��,7.4,37,,
2017/9/14,19:00:00,2,�k��,3.8,15,96.6,0,0,3,���k��,7.7,50,,
2017/9/14,20:00:00,3,���k��,3.7,15.1,96.7,0,0,3,���k��,7.1,31,,
2017/9/14,21:00:00,3,���k��,1.1,14.9,97.8,0,0,2,�k��,5.5,9,,
2017/9/14,22:00:00,2,�k��,1.8,14.6,97.9,0.5,0,4,��,3.6,13,,
2017/9/14,23:00:00,2,�k��,0.9,13.7,97.2,0,0,1,�k�k��,3.7,35,,
2017/9/14,0:00:00,15,�k�k��,1,13.6,98.2,0,0,1,�k�k��,2.5,10,,
2017/9/15,1:00:00,16,�É�,0,13.5,97.4,0,0,15,�k�k��,2.6,1,,
2017/9/15,2:00:00,16,�É�,0,13.1,98.9,1,0,16,�É�,0,0,,
2017/9/15,3:00:00,16,�É�,0,13.3,99,0,0,2,�k��,1.3,39,,
2017/9/15,4:00:00,16,�k,0.6,13.1,97.8,1,0,1,�k�k��,3.2,31,,
2017/9/15,5:00:00,16,�É�,0.2,12.4,98.6,0,0,13,���k��,2.5,22,,
2017/9/15,6:00:00,16,�É�,0,13,98.6,0,0.02,14,�k��,1.5,54,,
2017/9/15,7:00:00,15,�k�k��,1.1,13.5,95.9,0,0.06,16,�k,3,16,,
2017/9/15,8:00:00,1,�k�k��,2.4,13.8,93.1,0,0.13,1,�k�k��,5.8,32,,
2017/9/15,9:00:00,1,�k�k��,2.3,14,95.4,0,0.13,1,�k�k��,5.9,32,,
2017/9/15,10:00:00,2,�k��,4,15.6,84.9,0,0.34,1,�k�k��,7.7,37,,
2017/9/15,11:00:00,3,���k��,3,15,84.6,0,0.31,2,�k��,7.5,0,,
2017/9/15,12:00:00,3,���k��,5.4,16.3,78.5,0,0.4,3,���k��,7.7,57,,
2017/9/15,13:00:00,3,���k��,4.7,16,82.4,0,0.34,3,���k��,7.6,55,,
2017/9/15,14:00:00,3,���k��,6.1,17.5,74.9,0,0.49,4,��,8.9,43,,
2017/9/15,15:00:00,3,���k��,4.3,15.9,77.4,0,0.39,3,���k��,8.7,16,,
2017/9/15,16:00:00,3,���k��,2.9,14.3,88.7,0,0.06,3,���k��,6.8,5,,
2017/9/15,17:00:00,16,�k,1.5,13.5,92.4,0,0.03,2,�k��,4.3,5,,
2017/9/15,18:00:00,13,���k��,2,13,95.7,0,0.01,14,�k��,2.9,19,,
2017/9/15,19:00:00,13,���k��,2,13,97,0,0,12,��,3.9,28,,
2017/9/15,20:00:00,14,�k��,1.7,13.1,94.6,0,0,14,�k��,3.2,52,,
2017/9/15,21:00:00,13,���k��,1.8,12.9,96.4,0,0,14,�k��,3.8,39,,
2017/9/15,22:00:00,14,�k��,2.1,12.8,96.2,0,0,14,�k��,3.6,56,,
2017/9/15,23:00:00,16,�É�,0,12.7,96.4,0,0,13,���k��,3.3,14,,
2017/9/15,0:00:00,12,��,1.3,12.2,97.9,0,0,12,��,2.2,49,,
2017/9/16,1:00:00,16,�É�,0,12.1,97.7,0,0,12,��,2.2,4,,
2017/9/16,2:00:00,14,�k��,0.4,11.7,98.8,0,0,14,�k��,1.6,0,,
2017/9/16,3:00:00,16,�É�,0,11.5,97.5,0,0,14,�k��,2,1,,
2017/9/16,4:00:00,16,�É�,0,11.2,97.9,0,0,14,�k��,1.9,32,,
2017/9/16,5:00:00,16,�É�,0,9.2,98.7,0,0,14,�k��,1.8,27,,
2017/9/16,6:00:00,13,���k��,1.6,10.8,99.3,0,0.06,13,���k��,2.4,59,,
2017/9/16,7:00:00,16,�É�,0,12.6,93.3,0,0.18,14,�k��,2.6,0,,
2017/9/16,8:00:00,4,��,2,15.8,83.3,0,0.47,5,���쓌,3.7,49,,
2017/9/16,9:00:00,4,��,2.4,16.3,77.7,0,0.66,5,���쓌,4.4,3,,
2017/9/16,10:00:00,5,���쓌,2.7,15.4,81,0,0.64,5,���쓌,5.4,34,,
2017/9/16,11:00:00,6,�쓌,2.1,15.2,84,0,0.44,5,���쓌,4.6,10,,
2017/9/16,12:00:00,6,�쓌,2.9,16.1,74.6,0,0.65,5,���쓌,5.1,26,,
2017/9/16,13:00:00,7,��쓌,2.4,17,72.3,0,0.67,7,��쓌,4.2,6,,
2017/9/16,14:00:00,7,��쓌,2.6,16,74.1,0,0.7,6,�쓌,4.9,10,,
2017/9/16,15:00:00,7,��쓌,2.1,16.8,76.3,0,0.5,8,��,4.3,45,,
2017/9/16,16:00:00,8,��,2.5,15.7,75.3,0,0.39,8,��,4.4,52,,
2017/9/16,17:00:00,7,��쓌,1,14.5,84.9,0,0.13,7,��쓌,3.7,4,,
2017/9/16,18:00:00,8,��,0.3,13.5,90.1,0,0.01,7,��쓌,2.5,39,,
2017/9/16,19:00:00,16,�É�,0,12.7,86.1,0,0,8,��,2.6,17,,
2017/9/16,20:00:00,12,��,0.6,9,99.1,0,0,12,��,1.7,57,,
2017/9/16,21:00:00,16,�É�,0,8.4,99.8,0,0,12,��,1.9,22,,
2017/9/16,22:00:00,16,�É�,0,8.6,100,0,0,16,�É�,0,0,,
2017/9/16,23:00:00,12,��,1,8.4,100,0,0,12,��,2.5,33,,
2017/9/16,0:00:00,12,��,0.5,8.5,100,0,0,13,���k��,2.5,39,,
2017/9/17,1:00:00,13,���k��,2,9.5,100,0,0,13,���k��,2.9,59,,
2017/9/17,2:00:00,16,�É�,0,10.4,100,0,0,13,���k��,2.9,1,,
2017/9/17,3:00:00,16,�É�,0,10.6,99.4,0,0,13,���k��,2,27,,
2017/9/17,4:00:00,16,�É�,0.2,10.8,99.5,0,0,12,��,2,59,,
2017/9/17,5:00:00,16,�É�,0,10.8,98.5,0,0,12,��,3.1,3,,
2017/9/17,6:00:00,13,���k��,1.3,12,98.7,0,0.03,13,���k��,2,53,,
2017/9/17,7:00:00,12,��,0.9,13.3,93.8,0,0.13,12,��,2.4,59,,
2017/9/17,8:00:00,1,�k�k��,1.2,14.9,90.3,0,0.21,2,�k��,2.5,55,,
2017/9/17,9:00:00,2,�k��,2.3,15.8,89.1,0,0.23,3,���k��,3.8,58,,
2017/9/17,10:00:00,6,�쓌,2.5,17.6,76.2,0,0.48,7,��쓌,5.2,59,,